Weather in Tahtakupyr

Uzbekistan     43°01′32″N   60°16′44″E
temp.,
°C
wind,
m/s
gust,
m/s
humid.,
%
clouds,
%
prec.,
mm/h
press.,
hPa
HPBL,
m
16 april, fri
fri1623:00+16nnw474314 0.0 1015180
02:00+15nnw3548100 0.0 1015116
05:00+14wnw334718 0.0 101529
08:00+16wnw46350 0.0 1016198
11:00+21nw45262 0.0 1017846
14:00+24nnw45245 0.0 10161783
17:00+25nnw551562 0.0 10161794
20:00+21nne5716100 0.0 1017197
17 april, sat
sat1723:00+19ne4624100 0.0 1017146
02:00+17ne2228100 0.0 101713
05:00+16nne2329100 0.0 101816
08:00+17n342835 0.0 1019139
11:00+22nne3316100 0.0 1020912
14:00+25n33130 0.0 10192451
17:00+26nnw54120 0.0 10193033
20:00+22n58180 0.0 1020201
18 april, sun
sun1823:00+20ene33214 0.0 102043
02:00+18se222517 0.0 101911
05:00+18sw3325100 0.0 102019
08:00+20sw342394 0.0 1020146
11:00+25sw551482 0.0 10201256
14:00+27sw5513100 0.0 10183508
17:00+26wsw7514100 0.0 10172460
20:00+24nnw2318100 0.0 101756
19 april, mon
mon1923:00+22e4625100 0.0 1017123
02:00+20e472894 0.0 1016109
05:00+18e4832100 0.0 1016130
08:00+20ese592884 0.0 1016290
11:00+26sse561458 0.0 10161134
14:00+29sse551116 0.0 10143285
17:00+29s4512100 0.0 10123892
20:00+27sw451799 0.0 1012133
20 april, tue
tue2023:00+23wnw91130100 0.0 1013693
02:00+23ese2230100 0.0 101245
05:00+22sse593341 0.0 1011170
08:00+21ne223674 0.0 101284
11:00+25ene442869 0.0 10132372
14:00+24ne863367 0.0 10131514
17:00+22ne119358 0.0 10131443
20:00+16ene1013516 0.0 1016825